| time (UTC) | temp F | wind direction | speed MPH | gust MPH | rain 1hr in | rain 24hr in | rain mn in | humidity % | barometer mb |
| 20260503202313 | 63 | 226 | 11.0 | 19.0 | 0.00 | 0.00 | 0.00 | 37 | 1011.2 |
| 20260503201313 | 65 | 220 | 8.0 | 17.0 | 0.00 | 0.00 | 0.00 | 37 | 1011.5 |
| 20260503200313 | 63 | 222 | 11.0 | 21.0 | 0.00 | 0.00 | 0.00 | 36 | 1011.5 |
| 20260503195313 | 62 | 214 | 10.0 | 21.0 | 0.00 | 0.00 | 0.00 | 37 | 1011.5 |
| 20260503194313 | 64 | 223 | 9.0 | 17.0 | 0.00 | 0.00 | 0.00 | 36 | 1011.5 |
| 20260503193313 | 64 | 228 | 10.0 | 21.0 | 0.00 | 0.00 | 0.00 | 35 | 1011.9 |
| 20260503192313 | 63 | 230 | 10.0 | 22.0 | 0.00 | 0.00 | 0.00 | 36 | 1011.9 |
| 20260503191313 | 64 | 216 | 10.0 | 23.0 | 0.00 | 0.00 | 0.00 | 35 | 1012.2 |
| 20260503190313 | 63 | 233 | 9.0 | 16.0 | 0.00 | 0.00 | 0.00 | 35 | 1012.2 |
| 20260503185313 | 63 | 224 | 11.0 | 22.0 | 0.00 | 0.00 | 0.00 | 36 | 1012.2 |
| 20260503184313 | 63 | 205 | 11.0 | 20.0 | 0.00 | 0.00 | 0.00 | 36 | 1012.6 |
| 20260503183313 | 63 | 214 | 13.0 | 19.0 | 0.00 | 0.00 | 0.00 | 36 | 1012.6 |
| 20260503182313 | 62 | 229 | 12.0 | 23.0 | 0.00 | 0.00 | 0.00 | 36 | 1012.6 |
| 20260503181313 | 62 | 223 | 13.0 | 20.0 | 0.00 | 0.00 | 0.00 | 34 | 1013.2 |
| 20260503180312 | 62 | 229 | 12.0 | 21.0 | 0.00 | 0.00 | 0.00 | 36 | 1013.2 |
| 20260503175313 | 61 | 221 | 8.0 | 16.0 | 0.00 | 0.00 | 0.00 | 38 | 1013.2 |
| 20260503174312 | 61 | 214 | 10.0 | 18.0 | 0.00 | 0.00 | 0.00 | 38 | 1013.6 |
| 20260503173313 | 62 | 220 | 9.0 | 16.0 | 0.00 | 0.00 | 0.00 | 37 | 1013.6 |
| 20260503172312 | 61 | 225 | 10.0 | 19.0 | 0.00 | 0.00 | 0.00 | 38 | 1013.9 |
| 20260503171312 | 61 | 230 | 8.0 | 17.0 | 0.00 | 0.00 | 0.00 | 40 | 1014.2 |
| 20260503170312 | 59 | 228 | 8.0 | 15.0 | 0.00 | 0.00 | 0.00 | 41 | 1014.2 |
| 20260503150312 | 58 | 224 | 9.0 | 16.0 | 0.00 | 0.00 | 0.00 | 41 | 1014.6 |
| 20260503140312 | 51 | 230 | 6.0 | 11.0 | 0.00 | 0.00 | 0.00 | 50 | 1014.9 |
| 20260503131312 | 47 | 223 | 6.0 | 10.0 | 0.00 | 0.00 | 0.00 | 55 | 1015.3 |
| 20260503130312 | 45 | 218 | 7.0 | 11.0 | 0.00 | 0.00 | 0.00 | 57 | 1015.3 |
| 20260503110312 | 36 | 210 | 3.0 | 5.0 | 0.00 | 0.00 | 0.00 | 66 | 1015.3 |
| 20260503090312 | 35 | 205 | 2.0 | 4.0 | 0.00 | 0.00 | 0.00 | 73 | 1015.9 |
| 20260503081312 | 34 | 199 | 1.0 | 3.0 | 0.00 | 0.00 | 0.00 | 80 | 1016.3 |
| 20260503080312 | 34 | 195 | 1.0 | 2.0 | 0.00 | 0.00 | 0.00 | 83 | 1016.3 |
| 20260503072312 | 35 | 192 | 1.0 | 2.0 | 0.00 | 0.00 | 0.00 | 73 | 1016.3 |
| 20260503071312 | 35 | 190 | 1.0 | 2.0 | 0.00 | 0.00 | 0.00 | 72 | 1016.6 |
| 20260503070312 | 35 | 195 | 1.0 | 3.0 | 0.00 | 0.00 | 0.00 | 71 | 1016.6 |
| 20260503060312 | 35 | 191 | 1.0 | 2.0 | 0.00 | 0.00 | 0.00 | 78 | 1017.0 |
| 20260503054312 | 35 | 203 | 1.0 | 2.0 | 0.00 | 0.00 | 0.00 | 83 | 1017.0 |
| 20260503053312 | 35 | 190 | 0.0 | 1.0 | 0.00 | 0.00 | 0.00 | 81 | 1017.0 |
| 20260503052312 | 35 | 196 | 1.0 | 2.0 | 0.00 | 0.00 | 0.00 | 78 | 1017.0 |
| 20260503051312 | 36 | 196 | 1.0 | 2.0 | 0.00 | 0.00 | 0.00 | 80 | 1017.0 |
| 20260503050312 | 35 | 199 | 1.0 | 2.0 | 0.00 | 0.00 | 0.00 | 80 | 1017.0 |
| 20260503045312 | 35 | 195 | 0.0 | 1.0 | 0.00 | 0.00 | 0.00 | 86 | 1017.0 |
| 20260503044312 | 35 | 196 | 1.0 | 2.0 | 0.00 | 0.00 | 0.00 | 86 | 1017.0 |
| 20260503043312 | 35 | 187 | 0.0 | 1.0 | 0.00 | 0.00 | 0.00 | 86 | 1017.0 |
| 20260503042312 | 35 | 177 | 0.0 | 0.0 | 0.00 | 0.00 | 0.00 | 82 | 1017.3 |
| 20260503041312 | 35 | 178 | 0.0 | 1.0 | 0.00 | 0.00 | 0.00 | 81 | 1017.3 |
| 20260503040312 | 35 | 190 | 0.0 | 1.0 | 0.00 | 0.00 | 0.00 | 85 | 1017.3 |
| 20260503035312 | 35 | 185 | 0.0 | 1.0 | 0.00 | 0.00 | 0.00 | 85 | 1017.3 |
| 20260503034312 | 36 | 190 | 0.0 | 1.0 | 0.00 | 0.00 | 0.00 | 86 | 1017.3 |
| 20260503033312 | 36 | 179 | 0.0 | 1.0 | 0.00 | 0.00 | 0.00 | 80 | 1017.3 |
| 20260503032312 | 36 | 184 | 0.0 | 1.0 | 0.00 | 0.00 | 0.00 | 82 | 1017.3 |
| 20260503031312 | 36 | 165 | 0.0 | 0.0 | 0.00 | 0.00 | 0.00 | 81 | 1017.6 |
| 20260503030311 | 36 | 178 | 0.0 | 1.0 | 0.00 | 0.00 | 0.00 | 82 | 1017.6 |
| 20260503025312 | 36 | 150 | 0.0 | 0.0 | 0.00 | 0.00 | 0.00 | 79 | 1017.6 |
| 20260503024312 | 36 | 165 | 0.0 | 0.0 | 0.00 | 0.00 | 0.00 | 79 | 1017.6 |
| 20260503023312 | 37 | 176 | 0.0 | 0.0 | 0.00 | 0.00 | 0.00 | 79 | 1017.6 |
| 20260503022311 | 37 | 161 | 0.0 | 0.0 | 0.00 | 0.00 | 0.00 | 78 | 1017.6 |
| 20260503021312 | 38 | 172 | 0.0 | 0.0 | 0.00 | 0.00 | 0.00 | 79 | 1017.3 |
| 20260503020311 | 38 | 160 | 0.0 | 0.0 | 0.00 | 0.00 | 0.00 | 76 | 1017.3 |
| 20260503015311 | 39 | 158 | 0.0 | 0.0 | 0.00 | 0.00 | 0.00 | 72 | 1017.3 |
| 20260503014311 | 40 | 163 | 0.0 | 0.0 | 0.00 | 0.00 | 0.00 | 70 | 1017.3 |
| 20260503013311 | 41 | 166 | 0.0 | 0.0 | 0.00 | 0.00 | 0.00 | 67 | 1017.3 |
| 20260503012311 | 42 | 176 | 0.0 | 1.0 | 0.00 | 0.00 | 0.00 | 62 | 1017.3 |
| 20260503011311 | 43 | 179 | 0.0 | 1.0 | 0.00 | 0.00 | 0.00 | 51 | 1017.3 |
| 20260503010312 | 44 | 181 | 0.0 | 2.0 | 0.00 | 0.00 | 0.00 | 49 | 1017.3 |
| 20260503005311 | 45 | 191 | 0.0 | 1.0 | 0.00 | 0.00 | 0.00 | 52 | 1017.3 |
| 20260503004311 | 46 | 181 | 0.0 | 1.0 | 0.00 | 0.00 | 0.00 | 51 | 1017.3 |
| 20260503003311 | 47 | 196 | 1.0 | 2.0 | 0.00 | 0.00 | 0.00 | 46 | 1017.0 |
| 20260503002311 | 47 | 198 | 1.0 | 2.0 | 0.00 | 0.00 | 0.00 | 44 | 1017.3 |
| 20260503001311 | 48 | 222 | 0.0 | 1.0 | 0.00 | 0.00 | 0.00 | 42 | 1017.3 |
| 20260503000311 | 47 | 241 | 1.0 | 2.0 | 0.00 | 0.00 | 0.00 | 43 | 1017.3 |
| 20260502235311 | 47 | 292 | 2.0 | 4.0 | 0.00 | 0.00 | 0.00 | 40 | 1017.3 |
| 20260502234311 | 47 | 285 | 2.0 | 4.0 | 0.00 | 0.00 | 0.00 | 41 | 1017.3 |
| 20260502233311 | 47 | 253 | 2.0 | 4.0 | 0.00 | 0.00 | 0.00 | 42 | 1017.3 |
| 20260502232311 | 48 | 287 | 3.0 | 4.0 | 0.00 | 0.00 | 0.00 | 41 | 1017.3 |
| 20260502231311 | 48 | 302 | 4.0 | 7.0 | 0.00 | 0.00 | 0.00 | 41 | 1017.3 |
| 20260502230311 | 48 | 287 | 4.0 | 9.0 | 0.00 | 0.00 | 0.00 | 41 | 1017.3 |
| 20260502225311 | 48 | 253 | 3.0 | 6.0 | 0.00 | 0.00 | 0.00 | 40 | 1017.3 |
| 20260502224311 | 48 | 283 | 4.0 | 8.0 | 0.00 | 0.00 | 0.00 | 40 | 1017.3 |
| 20260502223311 | 48 | 233 | 3.0 | 7.0 | 0.00 | 0.00 | 0.00 | 40 | 1017.3 |
| 20260502222311 | 48 | 280 | 2.0 | 4.0 | 0.00 | 0.00 | 0.00 | 40 | 1017.3 |
| 20260502221311 | 48 | 291 | 4.0 | 7.0 | 0.00 | 0.00 | 0.00 | 38 | 1017.3 |
| 20260502220311 | 48 | 275 | 3.0 | 9.0 | 0.00 | 0.00 | 0.00 | 39 | 1017.3 |
| 20260502215311 | 48 | 291 | 3.0 | 5.0 | 0.00 | 0.00 | 0.00 | 39 | 1017.3 |
| 20260502214311 | 48 | 317 | 4.0 | 7.0 | 0.00 | 0.00 | 0.00 | 38 | 1017.3 |
| 20260502213311 | 48 | 297 | 4.0 | 9.0 | 0.00 | 0.00 | 0.00 | 39 | 1017.3 |
| 20260502212311 | 48 | 281 | 5.0 | 10.0 | 0.00 | 0.00 | 0.00 | 38 | 1017.6 |
| 20260502211311 | 48 | 267 | 5.0 | 9.0 | 0.00 | 0.00 | 0.00 | 38 | 1017.6 |
| 20260502210311 | 48 | 308 | 4.0 | 9.0 | 0.00 | 0.00 | 0.00 | 39 | 1017.3 |
| 20260502205311 | 48 | 291 | 4.0 | 7.0 | 0.00 | 0.00 | 0.00 | 39 | 1017.6 |
| 20260502204311 | 48 | 240 | 3.0 | 8.0 | 0.00 | 0.00 | 0.00 | 39 | 1017.6 |
| 20260502203311 | 48 | 252 | 4.0 | 6.0 | 0.00 | 0.00 | 0.00 | 40 | 1017.6 |